If you wish to contribute or participate in the discussions about articles you are invited to join SKYbrary as a registered user

 Actions

Normanton Airport

From SKYbrary Wiki

YNTN
Airport
ICAO: YNTN – IATA: NTN
Summary
Name Normanton Airport
Region Asia and Pacific
Territory "YN" is not in the list (AG, AN, AY, BG, BI, BK, C, CT, DA, DB, ...) of allowed values for the "ICAO Territory" property.
Location , Queensland
Serving Normanton
Elevation 22.25 m
73 ft
73 ft22.25 m
Type medium airport
Coordinates 17° 41' 0.96" S, 141° 4' 12.00" E
Runways
Designator Length Width Surface ROPS
14/32 1676 m5,498.688 ft
30 m98.425 ft
ASP /


METAR
Observation YNTN 262000Z AUTO 00000KT 9999 // NCD 26/26 Q1007
Station Normanton Airport
Date/Time 26 February 2020 20:00:00
Wind direction
Wind speed 00 kts
Lowest cloud amount no clouds detected
Temperature 26°C
Dew point 26°C
Humidity 100%
QNH 1007 hPa
Weather condition n/a